Wrangell, AK

4:09 PM AKDT on March 29, 2017 (GMT -0800)
Wrangell

Weather History for PAWG - June, 2013

Change the Weather History Date:

Friday, June 14, 2013

  Actual Average Record
Temperature  
Mean Temperature 56 °F -  
Max Temperature 62 °F 62 °F 84 °F (2002)
Min Temperature 51 °F 46 °F 35 °F (1958)
Degree Days  
Heating Degree Days 8    
Growing Degree Days 6 (Base 50)    
Moisture  
Dew Point 46 °F    
Average Humidity 68    
Maximum Humidity 77    
Minimum Humidity 52    
Precipitation  
Precipitation 0.00 in - - ()
Sea Level Pressure  
Sea Level Pressure 30.17 in    
Wind  
Wind Speed 5 mph (WNW)    
Max Wind Speed 8 mph    
Max Gust Speed -    
Visibility 10 miles    
Events      
Averages and records for this station are not official NWS values.
T = Trace of Precipitation, MM = Missing Value Source: NWS Daily Summary

Daily Weather History Graph

Daily Weather History Graph

Search for Another Location

Airport or City:

Trip Planner

Search our weather history database for the weather conditions in past years. The results will help you decide how hot, cold, wet, or windy it might be!

Date:

Astronomy

Jun. 14, 2013 Rise Set
Actual Time 3:58 AM AKDT 9:41 PM AKDT
Civil Twilight 2:54 AM AKDT 10:45 PM AKDT
Nautical Twilight 1:22 AM AKDT 12:17 AM AKDT
Astronomical Twilight Sun does not rise Sun does not rise
Moon 10:44 AM AKDT (6/14) No Moon Set
Length of Visible Light 19h 51m
Length of Day
17h 42m
Waxing Crescent, 31% of the Moon is Illuminated
Jun 14
Waxing Crescent
Jun 16
First Quarter
Jun 23
Full
Jun 29
Last Quarter
Jul 7
New

Hourly Weather History & Observations

Time (AKDT) Temp. Dew Point Humidity Pressure Visibility Wind Dir Wind Speed Gust Speed Precip Events Conditions
12:16 AM 51.8 °F 42.8 °F 71% 30.18 in 10.0 mi West 6.9 mph - N/A   Overcast
12:36 AM 51.8 °F 42.8 °F 71% 30.18 in 10.0 mi West 6.9 mph - N/A   Overcast
12:56 AM 51.8 °F 42.8 °F 71% 30.18 in 10.0 mi West 8.1 mph - N/A   Overcast
1:36 AM 51.8 °F 42.8 °F 71% 30.19 in 10.0 mi West 5.8 mph - N/A   Overcast
1:56 AM 51.8 °F 42.8 °F 71% 30.19 in 10.0 mi West 5.8 mph - N/A   Overcast
2:16 AM 51.8 °F 42.8 °F 71% 30.19 in 10.0 mi West 5.8 mph - N/A   Overcast
2:36 AM 51.8 °F 42.8 °F 71% 30.19 in 10.0 mi West 4.6 mph - N/A   Overcast
2:56 AM 51.8 °F 42.8 °F 71% 30.19 in 10.0 mi West 5.8 mph - N/A   Overcast
3:16 AM 51.8 °F 42.8 °F 71% 30.19 in 10.0 mi West 4.6 mph - N/A   Overcast
3:36 AM 51.8 °F 44.6 °F 76% 30.19 in 10.0 mi WSW 4.6 mph - N/A   Overcast
3:56 AM 51.8 °F 44.6 °F 76% 30.19 in 10.0 mi WSW 4.6 mph - N/A   Overcast
4:16 AM 51.8 °F 44.6 °F 76% 30.19 in 10.0 mi West 3.5 mph - N/A   Overcast
4:36 AM 51.8 °F 44.6 °F 76% 30.19 in 10.0 mi West 3.5 mph - N/A   Overcast
4:56 AM 51.8 °F 44.6 °F 76% 30.19 in 10.0 mi West 3.5 mph - N/A   Overcast
5:16 AM 51.8 °F 44.6 °F 76% 30.19 in 10.0 mi West 3.5 mph - N/A   Overcast
5:36 AM 51.8 °F 44.6 °F 76% 30.19 in 10.0 mi West 4.6 mph - N/A   Overcast
5:56 AM 51.8 °F 44.6 °F 76% 30.19 in 10.0 mi WSW 3.5 mph - N/A   Overcast
6:16 AM 51.8 °F 44.6 °F 76% 30.19 in 10.0 mi West 3.5 mph - N/A   Overcast
6:36 AM 51.8 °F 42.8 °F 71% 30.19 in 10.0 mi West 3.5 mph - N/A   Overcast
6:56 AM 51.8 °F 42.8 °F 71% 30.19 in 10.0 mi West 4.6 mph - N/A   Overcast
7:16 AM 51.8 °F 44.6 °F 76% 30.19 in 10.0 mi Calm Calm - N/A   Overcast
7:36 AM 51.8 °F 42.8 °F 71% 30.19 in 10.0 mi WSW 4.6 mph - N/A   Overcast
7:56 AM 51.8 °F 44.6 °F 76% 30.20 in 10.0 mi West 4.6 mph - N/A   Overcast
8:16 AM 53.6 °F 44.6 °F 72% 30.19 in 10.0 mi West 3.5 mph - N/A   Overcast
8:36 AM 53.6 °F 44.6 °F 72% 30.19 in 10.0 mi WNW 4.6 mph - N/A   Overcast
8:56 AM 53.6 °F 44.6 °F 72% 30.19 in 10.0 mi NW 4.6 mph - N/A   Overcast
9:16 AM 53.6 °F 44.6 °F 72% 30.19 in 10.0 mi NW 4.6 mph - N/A   Overcast
9:36 AM 53.6 °F 44.6 °F 72% 30.19 in 10.0 mi NW 4.6 mph - N/A   Overcast
9:56 AM 53.6 °F 46.4 °F 77% 30.19 in 10.0 mi NNW 4.6 mph - N/A   Overcast
10:16 AM 53.6 °F 44.6 °F 72% 30.18 in 10.0 mi NNW 4.6 mph - N/A   Overcast
10:36 AM 55.4 °F 46.4 °F 72% 30.19 in 10.0 mi NNW 4.6 mph - N/A   Overcast
10:56 AM 55.4 °F 46.4 °F 72% 30.19 in 10.0 mi NNW 4.6 mph - N/A   Overcast
11:16 AM 55.4 °F 46.4 °F 72% 30.18 in 10.0 mi NNW 4.6 mph - N/A   Overcast
11:36 AM 55.4 °F 46.4 °F 72% 30.18 in 10.0 mi NNW 5.8 mph - N/A   Overcast
11:56 AM 57.2 °F 48.2 °F 72% 30.18 in 10.0 mi NNW 4.6 mph - N/A   Overcast
12:16 PM 60.8 °F 48.2 °F 63% 30.18 in 10.0 mi NNW 4.6 mph - N/A   Mostly Cloudy
12:36 PM 57.2 °F 46.4 °F 67% 30.18 in 10.0 mi NW 3.5 mph - N/A   Mostly Cloudy
12:56 PM 59.0 °F 48.2 °F 67% 30.18 in 10.0 mi NNW 4.6 mph - N/A   Mostly Cloudy
1:16 PM 60.8 °F 46.4 °F 59% 30.18 in 10.0 mi West 5.8 mph - N/A   Mostly Cloudy
1:36 PM 59.0 °F 46.4 °F 63% 30.17 in 10.0 mi NW 5.8 mph - N/A   Mostly Cloudy
1:56 PM 60.8 °F 48.2 °F 63% 30.17 in 10.0 mi NW 6.9 mph - N/A   Overcast
2:16 PM 60.8 °F 46.4 °F 59% 30.17 in 10.0 mi WNW 5.8 mph - N/A   Overcast
2:36 PM 60.8 °F 44.6 °F 55% 30.17 in 10.0 mi NW 5.8 mph - N/A   Overcast
2:56 PM 60.8 °F 46.4 °F 59% 30.16 in 10.0 mi NW 5.8 mph - N/A   Overcast
3:16 PM 60.8 °F 48.2 °F 63% 30.16 in 10.0 mi WNW 4.6 mph - N/A   Overcast
3:36 PM 62.6 °F 46.4 °F 55% 30.16 in 10.0 mi WNW 6.9 mph - N/A   Overcast
3:56 PM 60.8 °F 44.6 °F 55% 30.15 in 10.0 mi West 5.8 mph - N/A   Overcast
4:16 PM 62.6 °F 46.4 °F 55% 30.15 in 10.0 mi WNW 4.6 mph - N/A   Overcast
4:36 PM 62.6 °F 46.4 °F 55% 30.15 in 10.0 mi WNW 3.5 mph - N/A   Overcast
4:56 PM 62.6 °F 44.6 °F 52% 30.15 in 10.0 mi WNW 5.8 mph - N/A   Overcast
5:16 PM 62.6 °F 46.4 °F 55% 30.15 in 10.0 mi SW 6.9 mph - N/A   Overcast
5:36 PM 62.6 °F 44.6 °F 52% 30.15 in 10.0 mi SW 5.8 mph - N/A   Overcast
5:56 PM 62.6 °F 46.4 °F 55% 30.14 in 10.0 mi SW 6.9 mph - N/A   Mostly Cloudy
6:16 PM 62.6 °F 44.6 °F 52% 30.14 in 10.0 mi SW 5.8 mph - N/A   Mostly Cloudy
6:36 PM 62.6 °F 46.4 °F 55% 30.14 in 10.0 mi SW 4.6 mph - N/A   Mostly Cloudy
6:56 PM 62.6 °F 46.4 °F 55% 30.14 in 10.0 mi SW 4.6 mph - N/A   Overcast
7:16 PM 62.6 °F 48.2 °F 59% 30.15 in 10.0 mi NW 3.5 mph - N/A   Overcast
7:36 PM 62.6 °F 46.4 °F 55% 30.14 in 10.0 mi West 3.5 mph - N/A   Overcast
7:56 PM 59.0 °F 48.2 °F 67% 30.15 in 10.0 mi NW 4.6 mph - N/A   Scattered Clouds
8:16 PM 57.2 °F 48.2 °F 72% 30.15 in 10.0 mi Calm Calm - N/A   Scattered Clouds
8:36 PM 57.2 °F 48.2 °F 72% 30.15 in 10.0 mi NW 3.5 mph - N/A   Scattered Clouds
8:56 PM 57.2 °F 50.0 °F 77% 30.15 in 10.0 mi NW 3.5 mph - N/A   Partly Cloudy
9:16 PM 55.4 °F 48.2 °F 77% 30.16 in 10.0 mi Calm Calm - N/A   Partly Cloudy
9:36 PM 57.2 °F 46.4 °F 67% 30.16 in 10.0 mi SW 3.5 mph - N/A   Partly Cloudy
9:56 PM 55.4 °F 46.4 °F 72% 30.16 in 10.0 mi SSW 3.5 mph - N/A   Partly Cloudy
10:16 PM 53.6 °F 46.4 °F 77% 30.16 in 10.0 mi Calm Calm - N/A   Partly Cloudy
10:36 PM 55.4 °F 46.4 °F 72% 30.17 in 10.0 mi Calm Calm - N/A   Partly Cloudy
10:56 PM 55.4 °F 46.4 °F 72% 30.17 in 10.0 mi Calm Calm - N/A   Partly Cloudy
11:16 PM 55.4 °F 48.2 °F 77% 30.17 in 10.0 mi Calm Calm - N/A   Scattered Clouds
11:36 PM 55.4 °F 46.4 °F 72% 30.18 in 10.0 mi Calm Calm - N/A   Clear
11:56 PM 53.6 °F 46.4 °F 77% 30.18 in 10.0 mi Calm Calm - N/A   Clear